Tracking 29892 objects as of 21-Nov-2024
HD Live streaming from Space Station
objects crossing your sky now

SL-8 R/B

Track SL-8 R/B now!
10-day predictions


NORAD ID: 28910
Int'l Code: 2005-048C
Perigee: 1,438.4 km
Apogee: 1,463.6 km
Inclination: 82.5 °
Period: 114.7 minutes
Semi major axis: 7821 km
RCS: 8.4237 m2 (large)
Launch date: December 21, 2005
Source: Commonwealth of Independent States (former USSR) (CIS)
Launch site: PLESETSK MISSILE AND SPACE COMPLEX (PKMTR)

Note: This is a ROCKET BODY
Your satellite tracking list
Your tracking list is empty




NASA's NSSDC Master Catalog

Two Line Element Set (TLE):
1 28910U 05048C   24325.90820189 -.00000048  00000-0 -35775-3 0  9994
2 28910  82.4646 319.0284 0016145 300.2511  63.3620 12.54949187866491
Source of the keplerian elements: AFSPC